Location: ?????????
(48.4454°N, 34.1244°E)
Time: 09:14:34
(UTC+00:00)

Daily predictions for brighter satellites

Satellite Brightness Start Highest point End
(mag) Time Altitude Azimuth Time Altitude Azimuth Time Altitude Azimuth
Cosmos 2297 4.5 18:07:31 10° SSE 18:12:29 32° ESE 18:17:29 10° NE
Cosmos 1943 Rocket 3.8 18:10:38 10° SE 18:13:39 15° E 18:16:41 10° ENE
STARLINK-1125 4.1 18:10:22 10° WNW 18:14:24 51° SW 18:18:25 10° SE
STARLINK-1098 4.0 18:12:35 10° WNW 18:16:43 66° NNE 18:20:50 10° ESE
Cosmos 2082 Rocket 2.3 18:11:48 10° NNW 18:17:34 86° WSW 18:23:16 10° SSE
STARLINK-1109 4.2 18:15:22 10° WNW 18:19:22 47° SW 18:23:21 10° SE
DMSP B5D2-2 4.5 18:14:10 10° N 18:19:27 71° WNW 18:24:42 10° SSW
Cosmos 1420 Rocket 4.1 18:15:16 10° SSW 18:20:29 86° WNW 18:25:43 10° NNE
Cosmos 1452 Rocket 3.5 18:15:27 10° SSW 18:20:41 70° ESE 18:25:58 10° NNE
STARLINK-1123 3.9 18:17:32 10° WNW 18:21:41 69° NNE 18:25:49 10° ESE
Cosmos 332 Rocket 3.9 18:17:52 10° S 18:22:39 56° ESE 18:27:27 10° NNE
STARLINK-1246 3.6 18:18:34 10° WSW 18:22:44 82° SSE 18:26:53 10° ENE
IGS 5A 3.9 18:19:36 10° SE 18:23:35 47° ENE 18:27:35 10° N
Landsat 7 4.2 18:19:36 10° SE 18:24:12 52° ENE 18:28:50 10° N
STARLINK-1091 4.3 18:20:20 10° WNW 18:24:18 44° SW 18:28:14 10° SE
NOSS 2-2 (C) 4.4 18:23:39 10° SSE 18:26:24 21° ESE 18:29:19 10° ENE
MOS 1 Rocket 4.5 18:22:32 10° N 18:26:42 43° WNW 18:30:45 10° SW
STARLINK-1097 3.8 18:22:33 10° WNW 18:26:43 72° NNE 18:30:51 10° ESE
STARLINK-1224 3.6 18:23:32 10° WSW 18:27:41 87° SSE 18:31:51 10° ENE
STARLINK-1072 4.4 18:25:22 10° WNW 18:29:16 41° SW 18:33:10 10° SSE
Cosmos 2369 Rocket 3.9 18:26:18 10° SE 18:29:17 15° E 18:32:17 10° ENE
ATLAS 3B CENTAUR R/B 4.5 18:20:10 10° SW 18:30:27 22° S 18:36:38 10° SE
Cosmos 1461 3.1 18:27:17 10° SSW 18:31:18 51° ESE 18:35:32 10° NE
NOSS 3-2 (A) 4.5 18:24:32 10° NW 18:31:39 55° NE 18:39:44 10° ESE
STARLINK-1099 3.8 18:27:31 10° WNW 18:31:41 75° NNE 18:35:50 10° ESE
STARLINK-1225 3.6 18:28:32 10° WSW 18:32:41 89° NNW 18:36:51 10° ENE
Okean 3 3.9 18:29:04 10° SSW 18:33:21 68° W 18:37:40 10° N
NOSS 8 (F) 4.1 18:30:45 10° SSW 18:33:57 63° SE 18:36:58 10° NE
SAR-Lupe-2 4.0 18:33:09 10° NNE 18:36:37 44° E 18:40:04 10° S
STARLINK-1104 3.7 18:32:29 10° WNW 18:36:40 79° NNE 18:40:48 10° ESE
STARLINK-1230 3.7 18:33:30 10° WSW 18:37:39 84° NNW 18:41:49 10° ENE
Meteor 1-13 Rocket 4.3 18:33:17 10° S 18:38:55 86° E 18:44:43 10° NNE
SPOT 5 3.8 18:35:06 10° SE 18:40:01 42° ENE 18:45:03 10° N
Cosmos 2221 Rocket 4.1 18:35:48 10° SSW 18:40:18 64° WNW 18:44:51 10° N
STARLINK-1144 3.7 18:37:28 10° WNW 18:41:38 83° NNE 18:45:48 10° ESE
STARLINK-1243 3.8 18:38:30 10° WSW 18:42:39 80° NNW 18:46:49 10° ENE
USA 238 DEB 4.2 18:36:31 10° NW 18:43:35 59° NE 18:50:54 10° ESE
USA 238 4.3 18:36:37 10° NW 18:43:41 59° NE 18:51:00 10° ESE
ERS-1 Rocket 3.4 18:39:41 11° SE 18:44:25 51° ENE 18:49:18 10° N
SL-4 R/B 3.8 18:44:45 10° WNW 18:46:31 14° WSW 18:48:12 10° SW
STARLINK-1103 3.6 18:42:27 10° WNW 18:46:37 88° NNE 18:50:36 11° ESE
STARLINK-1217 4.5 18:44:01 10° WNW 18:46:54 34° N 18:49:48 10° ENE
Cosmos 1066 Rocket 4.3 18:41:53 10° S 18:47:07 54° E 18:52:20 10° NNE
STARLINK-1236 3.8 18:43:28 10° WSW 18:47:37 76° NNW 18:51:47 10° ENE
STARLINK-1229 4.5 18:44:55 10° WNW 18:47:49 34° N 18:50:44 10° ENE
STARLINK-1270 4.5 18:45:49 10° WNW 18:48:43 34° N 18:51:38 10° ENE
STARLINK-1189 4.5 18:47:36 10° WNW 18:50:31 34° N 18:53:25 10° ENE
Nadezhda 4 Rocket 4.1 18:44:58 10° S 18:50:57 57° E 18:56:55 10° NNE
STARLINK-1188 4.5 18:48:32 10° WNW 18:51:26 34° N 18:54:21 10° ENE
STARLINK-1101 3.6 18:47:26 10° WNW 18:51:36 88° SSW 18:55:23 12° ESE
TSX-5 4.3 18:46:12 10° SSW 18:51:48 76° ESE 18:56:07 10° NE
Cosmos 2278 Rocket 3.4 18:46:43 10° SW 18:52:10 46° NW 18:57:40 10° NNE
STARLINK-1187 4.4 18:49:36 10° WNW 18:52:30 35° N 18:55:24 10° ENE
USA 245 2.6 18:50:18 11° S 18:53:09 69° WSW 18:55:41 10° NNW
STARLINK-1191 4.4 18:50:59 10° WNW 18:53:53 34° N 18:56:46 10° ENE
Cosmos 1741 Rocket 4.4 18:49:04 10° NNW 18:54:13 61° WSW 18:59:21 10° S
STARLINK-1221 4.4 18:51:57 10° WNW 18:54:50 35° N 18:57:44 10° ENE
STARLINK-1222 4.4 18:52:47 10° WNW 18:55:41 35° N 18:58:35 10° ENE
STARLINK-1214 4.4 18:53:41 10° WNW 18:56:35 35° N 18:59:30 10° ENE
STARLINK-1102 3.6 18:52:25 10° WNW 18:56:35 83° SSW 19:00:10 14° ESE
Okean 1 Rocket 3.1 18:52:15 10° N 18:56:45 74° E 19:00:42 13° SSE
Resurs 01 Rocket 3.1 18:52:49 10° SSW 18:56:51 33° W 19:00:55 10° NNW
Okean 2 Rocket 4.5 18:53:04 10° NNW 18:57:08 36° W 19:01:10 10° SSW
STARLINK-1269 4.0 18:53:28 10° WSW 18:57:35 69° NNW 19:01:45 10° ENE
Cosmos 1805 3.7 18:55:07 10° N 18:58:57 47° ENE 19:01:50 16° SSE
STARLINK-1228 4.3 18:56:23 10° WNW 18:59:44 42° N 19:03:06 10° E
STARLINK-1111 3.6 18:57:23 10° WNW 19:01:33 79° SSW 19:04:56 15° ESE
Cosmos 1455 Rocket 4.3 18:58:34 10° NNE 19:02:18 27° ENE 19:05:10 14° ESE
STARLINK-1200 4.0 18:58:27 10° WSW 19:02:34 66° NNW 19:06:43 10° ENE
STARLINK-1235 4.3 19:00:55 10° WNW 19:04:00 39° N 19:07:05 10° E
SL-8 R/B 3.8 18:59:29 10° W 19:04:15 64° SSW 19:08:20 14° ESE
NOSS 8 (H) 4.0 19:01:56 10° SW 19:05:05 79° SE 19:08:09 10° NE
STARLINK-1073 3.6 19:02:23 10° WNW 19:06:32 74° SSW 19:09:44 16° SE
Cosmos 371 Rocket 4.4 19:02:35 10° SW 19:07:17 47° WNW 19:12:01 10° NNE
STARLINK-1192 4.1 19:03:28 10° WSW 19:07:34 63° NNW 19:11:43 10° ENE
Cosmos 1110 Rocket 3.9 19:02:33 10° SSW 19:07:42 70° ESE 19:12:52 10° NNE
Spot 2 Rocket 4.0 19:04:14 10° S 19:09:10 56° W 19:14:09 10° NNW
Terra 2.2 19:05:29 16° SE 19:09:10 52° ENE 19:13:48 10° N
SPOT 1/Viking Rocket 3.7 19:04:39 11° S 19:09:33 76° WSW 19:14:44 10° NNW
BREEZE-M DEB (TANK) 4.5 19:08:16 10° S 19:11:17 28° ESE 19:18:35 10° ENE
STARLINK-1121 3.6 19:07:22 10° WNW 19:11:30 69° SSW 19:14:30 18° SE
SL-4 R/B 3.4 19:08:21 10° S 19:12:06 23° SE 19:15:54 10° E
STARLINK-1244 4.2 19:08:27 10° W 19:12:33 61° NNW 19:16:41 10° ENE
CARTOSAT-1 3.5 19:10:42 16° SSE 19:14:10 84° ENE 19:18:31 10° NNW
Cosmos 1842 4.3 19:13:35 19° SE 19:15:38 30° E 19:19:03 10° NNE
STARLINK-1106 3.7 19:12:22 10° WNW 19:16:29 65° SSW 19:19:19 19° SE
STARLINK-1138 4.3 19:13:28 10° W 19:17:33 59° NNW 19:21:40 10° ENE
Abrixas rocket 3.0 19:16:44 10° W 19:19:24 30° SSW 19:20:22 24° S
STARLINK-1112 3.7 19:17:20 10° WNW 19:21:25 60° SSW 19:24:04 21° SE
STARLINK-1234 4.0 19:18:38 10° WNW 19:21:51 46° NNE 19:25:02 10° E
STARLINK-1143 4.3 19:18:27 10° W 19:22:32 57° NNW 19:26:38 10° ENE
Cosmos 1331 Rocket 3.9 19:19:24 10° SSW 19:24:33 87° ESE 19:29:47 10° NNE
STARLINK-1128 3.8 19:22:19 10° WNW 19:26:23 56° SW 19:28:50 22° SE
SWAS 4.5 19:23:13 10° NNW 19:27:33 77° ENE 19:30:18 22° SE
STARLINK-1241 4.4 19:23:29 10° W 19:27:34 54° NNW 19:31:39 10° ENE
STARLINK-1209 3.8 19:24:28 10° WNW 19:27:41 49° NNE 19:30:41 12° E
COSMOS 2455 4.4 19:26:39 14° ESE 19:28:13 16° ESE 19:31:36 10° ENE
USA 215 4.1 19:22:23 10° E 19:28:37 49° NNE 19:34:51 10° WNW
STARLINK-1113 3.9 19:27:19 10° WNW 19:31:21 52° SW 19:33:38 24° SSE
Cosmos 1733 3.1 19:28:33 10° N 19:32:23 75° E 19:34:33 24° SSE
STARLINK-1239 4.5 19:28:29 10° W 19:32:33 53° NNW 19:36:38 10° ENE
Aureole 2 Rocket 3.9 19:30:50 10° SW 19:33:40 32° WNW 19:36:23 10° N
Cosmos 1486 Rocket 4.3 19:29:07 10° NNW 19:34:22 57° ENE 19:37:53 20° SE
NOSS 2-2 (D) 3.1 19:30:58 10° SW 19:34:32 88° NW 19:38:37 10° NE
Cosmos 1302 Rocket 4.1 19:30:04 13° S 19:34:37 58° ESE 19:39:50 10° NNE
STARLINK-1119 4.0 19:32:20 10° WNW 19:36:21 49° SW 19:38:26 25° SSE
Cosmos 1092 Rocket 3.9 19:30:54 13° S 19:36:21 78° E 19:42:31 10° NNE
CENTAUR R/B 3.4 19:28:36 10° NW 19:36:29 70° NE 19:43:59 15° SE
Cosmos 1378 3.3 19:35:06 14° SSW 19:38:13 69° W 19:41:56 10° N
Cosmos 1544 Rocket 4.1 19:35:03 10° N 19:39:13 44° ENE 19:41:31 23° SE
ATLAS 3B R/B 3.7 19:33:08 10° NW 19:39:30 42° NE 19:46:03 10° ESE
Lacrosse 5 4.1 19:37:13 10° W 19:39:42 14° WSW 19:42:10 10° SSW
Cosmos 1271 Rocket 4.0 19:39:15 22° ESE 19:40:29 26° E 19:43:47 10° NE
STARLINK-1114 4.1 19:37:18 10° WNW 19:41:17 45° SW 19:43:12 26° SSE
NOSS 3-2 (C) 4.1 19:34:03 10° NW 19:41:29 79° NE 19:48:12 17° SE
Cosmos 1242 Rocket 3.3 19:41:26 27° SE 19:42:45 36° E 19:46:10 10° NNE
MTI 3.7 19:41:57 10° NNE 19:45:06 64° ESE 19:46:21 32° S
STARLINK-1130 (DARKSAT) 4.2 19:42:19 10° WNW 19:46:15 42° SW 19:47:59 27° SSE
STARLINK-60 3.8 19:47:58 30° ESE 19:47:58 30° ESE 19:50:13 10° ENE
Cosmos 1707 4.0 19:49:26 23° ESE 19:50:34 27° E 19:53:52 10° NNE
STARLINK-1084 4.3 19:47:20 10° WNW 19:51:12 39° SW 19:52:46 27° S
Cosmos 2195 Rocket 4.5 19:46:13 15° S 19:51:33 86° E 19:57:51 10° N
NOSS 2-2 (E) 4.1 19:48:23 10° WSW 19:51:56 52° NW 19:56:07 10° NE
NOSS 3-4 (A) 4.1 19:49:11 22° SSE 19:52:03 33° ESE 19:57:34 10° NE
NOSS 3-4 (C) 4.1 19:49:19 22° SSE 19:52:10 33° ESE 19:57:40 10° NE
Cosmos 1867 4.1 19:48:03 10° NNW 19:53:26 53° NE 19:57:28 17° ESE
EXPRESS MD2 3.8 19:50:11 10° WSW 19:53:51 89° SSE 20:01:24 10° ENE
SL-27 R/B 2.4 19:50:52 10° NNW 19:54:28 82° WSW 19:55:55 34° SSE
Cosmos 1766 4.1 19:51:05 10° NNW 19:54:55 47° W 19:57:24 20° SSW
ALOS 2 4.5 19:53:01 13° ESE 19:55:37 20° ENE 19:58:50 10° NNE
STARLINK-1098 4.4 19:52:20 10° WNW 19:56:09 36° SW 19:57:33 28° S
Cosmos 1943 Rocket 2.1 19:50:59 10° SSW 19:56:32 89° SE 20:02:11 10° NNE
Cosmos 1428 Rocket 4.5 19:52:05 19° S 19:56:47 76° E 20:03:04 10° NNE
Cosmos 1726 3.8 19:53:55 10° NNE 19:56:55 23° ENE 19:58:20 18° ESE
Cosmos 2082 Rocket 4.5 19:57:43 10° WNW 20:00:46 15° W 20:03:48 10° SW
COSMOS 2487 4.2 19:59:10 10° N 20:02:02 24° ENE 20:03:33 18° E
SeaSat 1 3.3 19:58:47 10° NE 20:03:13 32° ESE 20:04:48 26° SE
BREEZE-M DEB 3.0 20:01:19 10° WSW 20:04:06 73° SSE 20:12:00 10° ENE
EO 1 Del DPAF 3.8 20:04:57 10° NNE 20:08:32 39° E 20:09:29 33° SE
S3M 4.3 20:03:46 10° N 20:09:51 57° ENE 20:13:29 25° SSE
Meteor 2-10 4.4 20:05:15 10° N 20:10:09 49° ENE 20:12:42 26° SE
Cosmos 1975 Rocket 3.5 20:07:29 18° SSW 20:10:41 60° WNW 20:15:05 10° N
Aureole 3 Rocket 4.3 20:05:23 10° N 20:11:33 87° E 20:17:11 23° S
Cosmos 2369 Rocket 2.1 20:07:22 13° SSW 20:12:27 86° ESE 20:18:08 10° NNE
Cosmos 292 Rocket 3.7 20:09:53 23° SSW 20:12:55 77° ESE 20:17:48 10° NNE
STARLINK-1271 4.5 20:11:38 10° WNW 20:15:41 50° NNE 20:19:44 10° E
STARLINK-1212 3.0 20:14:29 10° WNW 20:17:36 72° NNE 20:18:40 37° E
STARLINK-1105 3.0 20:14:57 10° WNW 20:18:03 72° NNE 20:19:06 38° E
SPOT 5 4.4 20:14:18 14° SSW 20:18:09 32° W 20:22:57 10° NNW
STARLINK-1247 3.0 20:15:49 10° WNW 20:18:57 73° NNE 20:19:59 38° E
STARLINK-1227 2.9 20:16:19 10° WNW 20:19:26 74° NNE 20:20:25 39° E
ATLAS 2AS CENTAUR R/B 3.1 20:13:12 14° SSW 20:20:05 60° ESE 20:27:52 10° NE
STARLINK-1226 2.9 20:17:10 10° WNW 20:20:18 75° NNE 20:21:16 40° E
STARLINK-1154 4.4 20:16:37 10° WNW 20:20:41 51° NNE 20:24:45 10° E
Cosmos 2026 Rocket 4.2 20:15:52 16° SSW 20:20:57 70° W 20:27:20 10° N
STARLINK-1215 2.9 20:18:05 10° WNW 20:21:12 76° NNE 20:22:09 41° E
Aureole 3 4.3 20:19:03 10° NNE 20:21:42 23° ENE 20:22:18 21° E
NOSS 3-2 (A) 4.5 20:15:29 10° NW 20:22:45 52° WSW 20:27:48 24° S
STARLINK-1217 2.9 20:19:53 10° WNW 20:23:01 78° NNE 20:23:53 43° ESE
Cosmos 1553 Rocket 4.0 20:17:07 10° N 20:23:27 88° W 20:27:04 27° S
Thor Agena Rocket 3.6 20:18:35 10° NNE 20:23:53 67° ESE 20:26:36 29° S
STARLINK-1229 2.9 20:20:48 10° WNW 20:23:55 79° NNE 20:24:46 44° ESE
ATLAS CENTAUR R/B 2.1 20:23:28 34° SE 20:24:03 35° ESE 20:27:52 10° NE
STARLINK-1270 2.9 20:21:41 10° WNW 20:24:50 80° NNE 20:25:38 46° ESE
Cosmos 1340 Rocket 3.5 20:21:33 10° N 20:25:29 45° ENE 20:26:55 31° SE
STARLINK-1197 4.4 20:21:34 10° WNW 20:25:39 53° NNE 20:29:44 10° E
Cosmos 1656 Rocket 3.7 20:23:31 27° S 20:26:31 60° ESE 20:32:01 10° NE
STARLINK-1189 2.8 20:23:29 10° WNW 20:26:37 82° NNE 20:27:22 48° ESE
STARLINK-1188 2.8 20:24:24 10° WNW 20:27:32 83° NNE 20:28:14 50° ESE
Cosmos 1025 Rocket 2.9 20:26:06 36° S 20:27:47 73° E 20:32:05 10° NNE
STARLINK-1187 2.7 20:25:28 10° WNW 20:28:35 89° SSW 20:29:05 60° ESE
STARLINK-1191 2.8 20:26:51 10° WNW 20:29:57 85° NNE 20:30:32 55° ESE
Cosmos 2292 Rocket 4.0 20:29:59 30° ESE 20:30:25 31° E 20:33:21 10° NNE
STARLINK-1198 4.3 20:26:34 10° WNW 20:30:39 54° NNE 20:34:43 10° E
STARLINK-1221 2.7 20:27:47 10° WNW 20:30:55 87° NNE 20:31:27 57° ESE
STARLINK-1222 2.7 20:28:38 10° WNW 20:31:45 88° NNE 20:32:16 59° ESE
STARLINK-1214 2.7 20:29:32 10° WNW 20:32:39 89° NNE 20:33:09 60° ESE
APEX 4.2 20:27:34 14° SSW 20:33:12 89° WNW 20:38:31 10° NNE
Cosmos 1655 Rocket 4.0 20:30:06 28° S 20:33:35 71° E 20:39:50 10° NNE
Cosmos 1953 2.4 20:29:46 10° N 20:33:46 66° E 20:35:00 41° SE
USA 238 DEB 4.5 20:27:45 10° NW 20:34:27 42° WSW 20:38:26 24° S
USA 238 4.5 20:27:50 10° NW 20:34:34 43° WSW 20:38:33 24° S
Cosmos 1470 3.2 20:31:22 10° NNW 20:35:10 52° W 20:36:30 34° SSW
Cosmos 968 Rocket 3.7 20:30:08 10° NNW 20:35:13 60° WSW 20:37:31 31° S
STARLINK-1199 4.2 20:31:34 10° WNW 20:35:40 56° NNE 20:39:45 10° E
STARLINK-1228 3.0 20:33:38 10° WNW 20:37:08 70° SSW 20:37:41 56° SSE
Cosmos 1455 Rocket 4.3 20:36:17 10° NNW 20:40:09 32° W 20:42:18 21° SW
STARLINK-1235 2.8 20:37:14 10° WNW 20:40:28 68° SSW 20:40:37 66° S
STARLINK-1210 4.1 20:36:32 10° WNW 20:40:39 59° NNE 20:44:31 11° E
STARLINK-1219 4.1 20:41:31 10° WNW 20:45:38 61° NNE 20:49:18 13° E
Terra 3.7 20:44:22 13° SW 20:47:13 21° W 20:50:52 10° NW
Cosmos 1758 4.1 20:44:21 10° NNW 20:48:14 45° W 20:49:40 31° SW
ATLAS CENTAUR R/B 3.5 20:48:03 10° NNW 20:49:29 16° NNE 20:51:22 10° ENE
SL-4 R/B 2.2 20:50:27 33° NNE 20:50:27 33° NNE 20:51:54 10° N
Cosmos 2228 3.8 20:46:17 10° N 20:50:19 40° ENE 20:51:46 30° ESE
STARLINK-1211 4.0 20:46:31 10° WNW 20:50:39 64° NNE 20:54:05 14° E
In-Cosmos 22 4.1 20:48:30 34° SSE 20:50:46 66° E 20:56:01 10° NNE
SL-4 R/B 2.3 20:46:33 10° WSW 20:51:21 77° SSE 20:56:12 10° ENE
Cosmos 2266 Rocket 3.9 20:49:10 31° S 20:52:13 71° E 20:58:15 10° NNE
STARLINK-52 4.1 20:54:05 31° E 20:54:05 31° E 20:56:03 10° ENE
Cosmos 1503 Rocket 4.3 20:49:49 10° NNW 20:55:01 57° WSW 20:57:15 33° S
STARLINK-1245 3.9 20:51:29 10° WNW 20:55:37 66° NNE 20:58:51 16° E
STARLINK-1234 3.6 20:55:03 10° WNW 20:57:43 42° WSW 20:57:43 42° WSW
STARLINK-1233 3.8 20:56:26 10° WNW 21:00:35 69° NNE 21:03:37 18° ESE
STARLINK-1209 4.0 21:01:03 10° WNW 21:03:27 35° WSW 21:03:27 35° WSW
STARLINK-1204 3.8 21:01:26 10° WNW 21:05:35 73° NNE 21:08:24 20° ESE
SJ 16-02 3.8 21:03:26 10° NNE 21:06:14 16° NE 21:09:01 10° E
Cosmos 1536 Rocket 4.2 21:08:36 28° SW 21:10:33 47° WNW 21:14:48 10° N
STARLINK-1238 3.7 21:06:26 10° WNW 21:10:35 76° NNE 21:13:12 22° ESE
USA 215 3.2 21:05:39 15° ESE 21:11:21 89° SSW 21:17:57 10° NW
Cosmos 883 Rocket 4.4 21:05:13 10° N 21:11:22 84° W 21:14:21 33° S
Helios 1B rocket 4.3 21:10:11 10° NE 21:13:03 18° E 21:13:50 17° ESE
COSMOS 2455 2.8 21:09:45 27° SSW 21:13:13 82° ESE 21:19:17 10° NE
Cosmos 1674 2.6 21:13:31 55° SSE 21:14:09 68° E 21:17:56 10° NNE
STARLINK-1201 3.6 21:11:24 10° WNW 21:15:34 80° NNE 21:17:58 24° ESE
Cosmos 2219 4.3 21:10:37 10° NNW 21:15:58 40° NE 21:20:24 14° ESE
Cosmos 1271 Rocket 4.4 21:14:22 18° WSW 21:16:25 28° WNW 21:19:50 10° N
BREEZE-M R/B 4.3 21:15:12 27° SSW 21:17:54 38° SSE 21:21:56 10° E
Cosmos 2297 Rocket 3.5 21:15:05 10° NNW 21:20:19 36° NE 21:25:15 11° ESE
STARLINK-1206 3.6 21:16:24 10° WNW 21:20:34 84° NNE 21:22:46 27° ESE
STARLINK-60 3.6 21:20:12 10° W 21:23:19 53° NNW 21:26:28 10° ENE
Timation 2 Rocket 3.9 21:18:15 10° NNW 21:24:38 84° ENE 21:27:57 29° SSE
STARLINK-1205 3.5 21:21:22 10° WNW 21:25:32 89° NNE 21:27:32 30° ESE
Helios 1A 2.9 21:24:59 46° SSE 21:26:11 81° ENE 21:30:24 10° NNW
Cosmos 1707 4.4 21:24:35 19° WSW 21:26:24 26° WNW 21:29:44 10° NNW
CENTAUR R/B 3.8 21:19:38 10° NW 21:27:04 40° WSW 21:31:08 26° SSW
Cosmos 1174 3.7 21:26:35 43° WSW 21:27:28 63° NW 21:31:17 10° NNE
Lacrosse 4 Rocket 4.1 21:26:23 10° N 21:29:25 18° NE 21:32:23 10° E
ATLAS 3B R/B 2.8 21:23:50 10° NW 21:30:31 62° WSW 21:33:57 31° SSE
STARLINK-1218 3.5 21:26:22 10° WNW 21:30:32 87° SSW 21:32:20 33° ESE
ALOS 2 3.0 21:30:24 39° SSW 21:31:36 52° W 21:35:55 10° NNW
Cosmos 1726 3.4 21:28:54 10° NNW 21:32:08 29° W 21:32:50 27° WSW
STARLINK-1368 4.3 21:34:00 34° ESE 21:34:00 34° ESE 21:36:43 10° ENE
Cosmos 2058 Rocket 3.4 21:28:47 10° N 21:33:11 60° ENE 21:34:42 38° SE
Meteor 2-5 Rocket 3.7 21:31:44 36° S 21:34:02 70° E 21:39:40 10° NNE
STARLINK-1254 3.5 21:31:20 10° WNW 21:35:30 82° SSW 21:37:06 36° SE
STARLINK-1369 4.1 21:37:19 37° ESE 21:37:19 37° ESE 21:40:12 10° ENE
Cosmos 1867 4.5 21:32:01 10° NW 21:36:49 32° WSW 21:38:07 29° SW
COSMOS 2487 3.8 21:34:07 10° NW 21:37:02 26° WSW 21:37:02 26° WSW
STARLINK-1372 4.0 21:40:39 40° ESE 21:40:39 40° ESE 21:43:42 10° ENE
STARLINK-1231 3.5 21:36:18 10° WNW 21:40:28 77° SSW 21:41:52 40° SE
SeaSat 1 3.4 21:36:09 10° NNE 21:40:51 45° NW 21:44:34 15° WSW
Cosmos 1943 Rocket 4.5 21:36:54 10° W 21:41:05 21° NW 21:45:19 10° N
NOSS 3-4 (A) 3.9 21:36:40 10° WSW 21:42:35 59° NW 21:49:00 10° NE
STARLINK-1246 4.4 21:38:33 10° WNW 21:42:38 52° NNE 21:46:42 10° E
NOSS 3-4 (C) 3.9 21:36:45 10° WSW 21:42:42 59° NW 21:49:06 10° NE
Cosmos 1606 Rocket 3.8 21:39:06 10° NNW 21:43:21 57° W 21:44:29 42° SSW
STARLINK-1378 3.8 21:43:59 44° ESE 21:43:59 44° ESE 21:47:11 10° ENE
Cosmos 2098 Rocket 4.4 21:39:40 29° SSW 21:43:46 76° W 21:51:18 10° N
SL-14 R/B 3.5 21:43:45 46° SE 21:44:26 54° E 21:48:12 10° NNE
STARLINK-1232 3.5 21:41:18 10° WNW 21:45:27 73° SSW 21:46:40 44° SE
STARLINK-1379 3.7 21:47:21 47° SE 21:47:21 47° SE 21:50:43 10° ENE
FALCON 9 DEB 3.0 21:46:54 63° WSW 21:47:24 89° NNW 21:50:52 10° ENE
STARLINK-1224 4.4 21:43:32 10° WNW 21:47:37 54° NNE 21:51:41 10° E
STARLINK-1329 3.6 21:48:42 49° SE 21:48:42 49° SE 21:52:08 10° ENE
Cosmos 2315 Rocket 4.3 21:43:12 10° NNW 21:49:14 55° W 21:52:08 30° SSW
STARLINK-1208 3.5 21:46:16 10° WNW 21:50:24 68° SSW 21:51:26 47° SSE
STARLINK-1362 3.5 21:52:07 52° SE 21:52:07 52° SE 21:55:43 10° ENE
STARLINK-1225 4.3 21:48:32 10° WNW 21:52:37 56° NNE 21:56:43 10° E
STARLINK-29 3.5 21:51:41 27° W 21:53:11 57° NNW 21:56:21 10° ENE
Cosmos 1697 Rocket 4.5 21:51:04 15° SE 21:53:12 19° E 21:56:59 10° ENE
RESURS DK-1 2.4 21:53:56 43° SW 21:55:13 76° WNW 21:59:23 10° NNE
STARLINK-1271 3.5 21:51:17 10° WNW 21:55:24 64° SSW 21:56:13 50° SSE
STARLINK-1373 3.4 21:55:31 56° SSE 21:55:33 56° SSE 21:59:18 10° ENE
BREEZE-M DEB (TANK) 2.4 21:49:02 10° W 21:55:37 77° N 21:58:09 10° E
BREEZE-M DEB (TANK) 3.3 21:52:45 10° W 21:56:07 53° SSW 22:01:56 10° SE
STARLINK-1365 3.4 21:56:33 58° SSE 21:56:42 58° SSE 22:00:29 10° ENE
Cosmos 2369 Rocket 4.4 21:52:54 10° W 21:57:13 22° NW 22:01:35 10° N
Cosmos 2227 Rocket 2.8 21:51:47 10° NNW 21:57:23 55° ENE 22:01:43 17° SE
STARLINK-1230 4.2 21:53:30 10° WNW 21:57:37 58° NNE 22:01:42 10° E
Nadezhda 2 Rocket 4.4 21:55:00 33° SSW 21:57:57 82° W 22:04:08 10° N
Cosmos 2084 3.4 21:57:06 41° SW 21:58:38 86° SE 22:03:09 10° NE
STARLINK-1390 3.4 21:59:00 58° SSE 21:59:10 59° SSE 22:02:55 10° ENE
STARLINK-1154 3.6 21:56:16 10° WNW 22:00:22 59° SSW 22:01:00 52° S
Okean 1-7 Rocket 3.5 22:00:13 44° SSW 22:01:38 85° W 22:06:12 10° N
Cosmos 1626 2.0 22:01:28 60° S 22:02:06 89° W 22:05:51 10° N
STARLINK-1243 4.1 21:58:30 10° WNW 22:02:37 60° NNE 22:06:44 10° E
ATLAS CENTAUR R/B 2.8 21:59:35 13° WSW 22:02:58 35° NW 22:06:45 10° NNE
CZ-4 R/B 3.9 21:58:16 10° NNE 22:03:02 64° ESE 22:04:39 39° SSE
STARLINK-1197 3.6 22:01:14 10° WNW 22:05:18 55° SW 22:05:46 52° S
STARLINK-1236 4.1 22:03:28 10° WNW 22:07:36 63° NNE 22:11:43 10° E
Meteor 2-21 Rocket 4.4 22:05:57 33° S 22:08:56 86° E 22:15:11 10° N
STARLINK-1198 3.7 22:06:14 10° WNW 22:10:16 51° SW 22:10:32 50° SSW
ATLAS 2AS CENTAUR R/B 3.9 22:03:40 10° WSW 22:11:25 50° NW 22:19:01 10° NE
Cosmos 1602 Rocket 4.3 22:10:15 31° SE 22:11:40 41° E 22:15:45 10° NNE
Meteor 2-14 Rocket 4.4 22:08:44 32° SSW 22:11:44 78° W 22:17:55 10° N
Landsat 4 4.3 22:11:27 10° N 22:15:02 47° WNW 22:16:01 37° WSW
STARLINK-1199 3.8 22:11:14 10° WNW 22:15:15 48° SW 22:15:20 48° SSW
STARLINK-1269 3.9 22:13:27 10° WNW 22:17:35 68° NNE 22:21:43 10° ESE
Nadezhda 1 Rocket 4.0 22:13:09 10° N 22:19:23 81° E 22:22:56 28° SSE
STARLINK-1210 3.9 22:16:14 10° WNW 22:20:06 44° SW 22:20:06 44° SW
FALCON 9 R/B 3.6 22:19:35 28° S 22:20:18 28° SSE 22:31:19 10° ESE
EO 1 Delta rocket 4.5 22:16:42 10° N 22:22:20 56° WNW 22:24:37 30° SW
STARLINK-1200 3.8 22:18:24 10° WNW 22:22:33 72° NNE 22:26:42 10° ESE
ATLAS 5 CENTAUR R/B 3.6 22:23:15 10° W 22:25:07 16° NW 22:26:35 10° N
STARLINK-1219 4.1 22:21:14 10° WNW 22:24:53 41° SW 22:24:53 41° SW
Cosmos 1356 Rocket 3.4 22:21:53 10° NNW 22:26:06 77° W 22:27:23 44° S
Cosmos 1892 Rocket 4.4 22:25:06 28° WSW 22:26:43 39° WNW 22:30:51 10° N
STARLINK-1192 3.7 22:23:24 10° WNW 22:27:34 75° NNE 22:31:43 10° ESE
Cosmos 1763 Rocket 4.3 22:25:32 27° SSE 22:27:34 39° ESE 22:32:16 10° NE
STARLINK-52 4.1 22:26:28 13° W 22:29:06 43° NNW 22:32:12 10° ENE
STARLINK-1211 4.2 22:26:15 10° WNW 22:29:40 37° SW 22:29:40 37° SW
SL-4 R/B 2.9 22:26:31 10° W 22:31:19 60° N 22:36:03 10° ENE
STARLINK-1320 3.0 22:31:42 52° W 22:32:18 73° NNW 22:35:26 10° ENE
STARLINK-1244 3.7 22:28:22 10° WNW 22:32:32 79° NNE 22:36:41 10° ESE
STARLINK-1322 3.0 22:32:00 51° W 22:32:38 72° NNW 22:35:45 10° ENE
Cosmos 1300 3.4 22:29:22 10° NNW 22:32:56 39° W 22:33:33 36° WSW
STARLINK-1324 3.0 22:32:21 51° W 22:33:00 72° NNW 22:36:07 10° ENE
STARLINK-1294 3.0 22:32:38 50° W 22:33:17 72° NNW 22:36:25 10° ENE
Cosmos 921 Rocket 3.6 22:31:52 30° WSW 22:33:35 48° WNW 22:37:50 10° N
STARLINK-1261 3.0 22:32:58 50° W 22:33:37 71° NNW 22:36:45 10° ENE
ERBS 3.8 22:30:41 10° NW 22:33:51 38° NNE 22:37:00 10° E
STARLINK-1325 3.0 22:33:19 49° W 22:33:59 71° NNW 22:37:06 10° ENE
STARLINK-1338 3.3 22:32:46 36° WSW 22:34:13 85° NNW 22:38:01 10° ENE
STARLINK-1333 3.0 22:33:40 48° W 22:34:21 71° NNW 22:37:29 10° ENE
STARLINK-1334 3.0 22:33:58 48° W 22:34:40 70° NNW 22:37:47 10° ENE
STARLINK-1326 3.0 22:34:18 47° W 22:35:01 70° NNW 22:38:09 10° ENE
STARLINK-1245 4.4 22:31:15 10° WNW 22:34:26 33° WSW 22:34:26 33° WSW
STARLINK-1323 3.0 22:34:36 47° W 22:35:20 70° NNW 22:38:27 10° ENE
Meteor 1-24 Rocket 4.1 22:33:05 28° SW 22:35:41 51° WNW 22:41:03 10° N
STARLINK-1349 3.0 22:34:57 46° W 22:35:41 69° NNW 22:38:49 10° ENE
STARLINK-1336 3.1 22:35:16 46° W 22:36:01 69° NNW 22:39:08 10° ENE
STARLINK-1331 3.1 22:35:35 45° W 22:36:21 69° NNW 22:39:28 10° ENE
STARLINK-1344 3.1 22:35:54 45° W 22:36:41 68° NNW 22:39:48 10° ENE
STARLINK-1343 3.1 22:36:14 44° W 22:37:01 68° NNW 22:40:08 10° ENE
STARLINK-1346 3.1 22:36:30 42° W 22:37:22 68° NNW 22:40:31 10° ENE
STARLINK-1138 3.6 22:33:21 10° WNW 22:37:31 83° NNE 22:41:41 10° ESE
STARLINK-1328 3.1 22:36:54 43° W 22:37:43 67° NNW 22:40:50 10° ENE
STARLINK-1354 3.1 22:37:13 43° W 22:38:03 67° NNW 22:41:09 10° ENE
CZ-4C R/B 2.7 22:36:20 31° SSE 22:38:15 43° ESE 22:43:46 10° NE
STARLINK-1347 3.1 22:37:33 42° W 22:38:23 67° NNW 22:41:31 10° ENE
STARLINK-1357 3.1 22:37:53 42° W 22:38:44 67° NNW 22:41:51 10° ENE
STARLINK-1335 3.1 22:38:12 41° W 22:39:05 66° NNW 22:42:11 10° ENE
STARLINK-1327 3.1 22:38:31 41° W 22:39:24 66° NNW 22:42:31 10° ENE
STARLINK-1340 3.1 22:38:52 41° W 22:39:46 66° NNW 22:42:52 10° ENE
STARLINK-1356 3.1 22:39:10 40° W 22:40:04 65° NNW 22:43:12 10° ENE
STARLINK-1345 3.2 22:39:28 40° W 22:40:23 65° NNW 22:43:31 10° ENE
Cosmos 1437 3.5 22:40:11 36° W 22:40:26 36° WNW 22:43:15 10° N
STARLINK-1355 3.2 22:39:47 39° W 22:40:44 65° NNW 22:43:51 10° ENE
STARLINK-1371 3.4 22:39:09 31° WSW 22:40:50 79° NNW 22:44:37 10° ENE
STARLINK-1321 3.2 22:40:09 39° W 22:41:07 64° NNW 22:44:13 10° ENE
STARLINK-1358 3.2 22:40:29 38° W 22:41:27 64° NNW 22:44:33 10° ENE
STARLINK-1332 3.2 22:40:48 38° W 22:41:46 64° NNW 22:44:53 10° ENE
STARLINK-1348 3.2 22:41:05 38° W 22:42:04 64° NNW 22:45:11 10° ENE
STARLINK-1330 3.2 22:41:27 37° W 22:42:27 63° NNW 22:45:34 10° ENE
STARLINK-1143 3.6 22:38:19 10° WNW 22:42:29 87° NNE 22:46:38 10° ESE
STARLINK-1363 3.2 22:41:46 37° W 22:42:48 63° NNW 22:45:54 10° ENE
Resurs 1-4 Rocket 3.4 22:38:07 10° NNE 22:42:51 32° E 22:46:05 17° SSE
STARLINK-1337 3.2 22:42:06 36° W 22:43:09 63° NNW 22:46:14 10° ENE
STARLINK-1342 3.2 22:42:25 36° W 22:43:28 63° NNW 22:46:34 10° ENE
STARLINK-1364 3.2 22:42:45 36° W 22:43:48 62° NNW 22:46:55 10° ENE
STARLINK-1376 3.2 22:43:04 35° W 22:44:08 62° NNW 22:47:15 10° ENE
STARLINK-1341 3.4 22:42:21 29° WSW 22:44:10 76° NNW 22:47:57 10° ENE
Meteor 2-1 Rocket 4.1 22:38:38 10° NNW 22:44:11 83° W 22:47:12 28° S
STARLINK-1360 3.2 22:43:23 35° W 22:44:28 62° NNW 22:47:35 10° ENE
STARLINK-1361 3.3 22:43:43 35° W 22:44:49 61° NNW 22:47:55 10° ENE
STARLINK-1367 3.3 22:44:00 34° W 22:45:09 62° NNW 22:48:18 10° ENE
SJ 16-02 1.3 22:40:56 10° NNW 22:45:23 75° WSW 22:47:12 35° S
STARLINK-1366 3.3 22:44:23 34° W 22:45:30 61° NNW 22:48:37 10° ENE
Cosmos 2369 4.4 22:43:44 26° SSE 22:46:28 44° ESE 22:51:48 10° NE
STARLINK-1339 3.4 22:45:38 29° WSW 22:47:19 73° NNW 22:50:57 10° ENE
STARLINK-1241 3.5 22:43:20 10° WNW 22:47:30 88° SSW 22:51:39 10° ESE
STARLINK-1374 3.5 22:45:33 27° WSW 22:47:30 74° NNW 22:51:18 10° ENE
Cosmos 1980 Rocket 3.6 22:45:27 17° SSE 22:48:30 27° ESE 22:53:10 10° NE
Helios 1B rocket 3.0 22:44:34 10° N 22:48:35 48° WNW 22:50:09 31° SW
Cosmos 1758 Rocket 4.1 22:49:14 28° SSE 22:51:12 51° E 22:55:30 10° NNE
MOZ.5/SAFIR/RUBIN 5/SL-8 4.1 22:48:36 21° SSE 22:51:39 62° ENE 22:56:15 10° N
GP-B 4.4 22:47:55 10° NNE 22:51:59 34° E 22:54:57 16° SE
STARLINK-1239 3.5 22:48:18 10° WNW 22:52:29 84° SSW 22:56:37 10° ESE
STARLINK-1377 3.6 22:52:00 23° W 22:54:15 69° NNW 22:58:03 10° ENE
USA 215 4.0 22:52:57 27° SSW 22:54:54 31° SW 23:00:36 10° WNW
CZ-2D R/B 3.0 22:51:43 10° NNE 22:56:37 39° E 22:59:51 19° SSE
STARLINK-1240 3.5 22:53:16 10° WNW 22:57:25 79° SSW 23:01:34 10° ESE
STARLINK-1353 3.7 22:55:17 21° W 22:57:40 66° NNW 23:01:27 10° ENE
GEOS 3 Rocket 3.7 22:53:36 10° SE 22:58:48 81° NE 23:04:07 10° NW
Cosmos 1745 Rocket 4.1 22:55:32 27° SSW 22:58:56 63° WNW 23:05:03 10° N
Cosmos 2219 3.8 22:54:53 10° NW 23:00:07 39° WSW 23:02:17 28° SSW
Cosmos 1400 Rocket 4.4 22:57:06 10° N 23:00:53 33° ENE 23:04:38 10° SE
STARLINK-1375 3.7 22:58:33 19° W 23:01:05 64° NNW 23:04:52 10° ENE
STARLINK-1216 3.5 22:58:15 10° WNW 23:02:23 74° SSW 23:06:31 10° SE
STARLINK-1203 3.5 22:58:20 10° WNW 23:02:32 74° SSW 23:06:44 10° SE
STARLINK-1352 3.7 23:01:57 19° W 23:04:22 61° NNW 23:07:58 10° ENE
Cosmos 2297 Rocket 2.6 22:59:08 10° NW 23:04:29 44° WSW 23:07:00 28° SSW
STARLINK-1350 3.8 23:01:49 18° W 23:04:30 62° NNW 23:08:16 10° ENE
STARLINK-1237 3.5 23:03:14 10° WNW 23:07:22 70° SSW 23:11:29 10° SE
Cosmos 468 Rocket 3.9 23:05:31 29° SSW 23:08:09 83° WNW 23:13:19 10° NNE
Cosmos 2263 Rocket 3.9 23:03:34 10° NNW 23:08:39 33° NE 23:13:40 10° ESE
Lacrosse 4 Rocket 1.3 23:04:22 10° NW 23:08:43 85° WSW 23:11:40 19° SSE
Cosmos 1953 Rocket 4.4 23:06:09 21° SSE 23:08:44 44° E 23:12:57 10° NNE
SAR-Lupe-3 4.5 23:07:10 10° NNE 23:10:44 84° ESE 23:11:59 38° S
STARLINK-1368 3.9 23:08:27 15° W 23:11:26 58° NNW 23:15:11 10° ENE
Cosmos 1455 2.1 23:07:48 10° NNW 23:11:32 69° W 23:12:54 36° S
Meteor 2-10 Rocket 3.5 23:06:41 10° NNW 23:11:52 67° W 23:14:40 26° S
STARLINK-1202 3.5 23:08:13 10° WNW 23:12:20 65° SSW 23:16:27 10° SE
Meteor 1-29 4.0 23:09:42 10° N 23:12:46 33° WNW 23:13:48 26° WSW
Cosmos 1626 Rocket 4.5 23:11:50 25° WSW 23:13:41 36° WNW 23:17:44 10° N
Cosmos 1937 Rocket 3.5 23:08:49 10° NNW 23:14:04 72° WSW 23:17:40 21° S
Cosmos 2082 3.6 23:08:53 10° NNW 23:14:31 71° WSW 23:18:47 18° SSE
Cosmos 1898 Rocket 3.7 23:09:35 10° NNW 23:14:46 53° WSW 23:17:35 26° S
STARLINK-1369 4.0 23:11:47 14° W 23:14:55 56° NNW 23:18:40 10° ENE
Cosmos 540 Rocket 3.9 23:14:56 23° S 23:17:54 54° ESE 23:22:54 10° NNE
STARLINK-1372 4.0 23:15:07 13° W 23:18:25 55° NNW 23:22:10 10° ENE
ATLAS 3B R/B 4.4 23:17:09 10° W 23:19:58 13° WSW 23:21:10 12° WSW
Starlink 7 placeholder 4.3 23:18:33 10° NW 23:20:16 24° N 23:21:59 10° ENE
Cosmos 2181 Rocket 4.1 23:14:28 10° N 23:20:58 89° WSW 23:26:09 17° S
STARLINK-1378 4.1 23:18:28 12° W 23:21:55 53° NNW 23:25:39 10° ENE
STARLINK-1246 3.6 23:18:13 10° WNW 23:22:17 57° SSW 23:26:21 10° SE
SL-16 R/B 2.5 23:19:17 15° SSE 23:24:27 84° WSW 23:30:41 10° NNW
Cosmos 2278 4.0 23:21:32 23° S 23:25:01 60° ESE 23:30:37 10° NNE
CZ-4B R/B 4.2 23:20:13 10° NNE 23:25:19 51° E 23:29:08 18° S
STARLINK-1379 4.1 23:21:51 11° W 23:25:27 52° NNW 23:29:11 10° ENE
Meteor 1-21 Rocket 4.4 23:22:26 25° SSW 23:25:48 63° WNW 23:31:32 10° N
STARLINK-1329 4.2 23:23:14 10° W 23:26:55 51° NNW 23:30:39 10° ENE
CZ-4C R/B 3.5 23:24:34 25° S 23:27:04 70° WSW 23:31:30 10° NNW
STARLINK-1224 3.7 23:23:12 10° WNW 23:27:14 53° SW 23:31:16 10° SE
Cosmos-2242 3.0 23:25:57 10° NNW 23:30:11 65° W 23:32:30 25° S
STARLINK-1362 4.2 23:26:47 10° W 23:30:30 50° NNW 23:34:14 10° ENE
NPP 3.9 23:25:43 10° NNE 23:31:07 67° ESE 23:34:58 19° S
ATLAS CENTAUR R/B 2.7 23:28:47 10° WNW 23:31:31 30° SW 23:36:57 10° SSE
Cosmos 1656 4.2 23:27:52 19° SW 23:31:43 51° NW 23:37:12 10° NNE
STARLINK-1225 3.7 23:28:12 10° WNW 23:32:13 49° SW 23:36:13 10° SE
Cosmos 2221 4.2 23:28:36 10° N 23:32:31 32° ENE 23:36:25 10° SE
STARLINK-28 4.1 23:33:02 26° SSE 23:33:35 27° SE 23:36:22 10° E
STARLINK-1373 4.3 23:30:22 10° W 23:34:05 49° NNW 23:37:50 10° ENE
STARLINK-1365 4.3 23:31:36 10° W 23:35:21 48° NNW 23:39:06 10° ENE
Cosmos 2084 Rocket 3.7 23:30:55 10° NW 23:35:24 78° NE 23:39:55 10° SE
Cosmos 1697 Rocket 2.7 23:32:47 23° SW 23:36:28 79° WNW 23:42:12 10° NNE
Cosmos 1814 Rocket 4.2 23:33:35 22° S 23:37:05 72° ESE 23:42:24 10° NNE
STARLINK-1230 3.8 23:33:12 10° WNW 23:37:10 45° SW 23:41:08 10° SE
STARLINK-1390 4.3 23:34:01 10° W 23:37:43 48° NNW 23:41:27 10° ENE
Cosmos 1570 Rocket 4.0 23:35:09 23° SSW 23:38:33 86° WNW 23:43:52 10° NNE
Cosmos 2298 Rocket 4.2 23:35:11 10° NNW 23:40:31 76° ENE 23:45:50 10° SSE
BREEZE-M R/B 2.7 23:35:33 10° W 23:40:39 80° N 23:43:32 10° ENE
Cosmos 2227 Rocket 3.2 23:36:24 10° NW 23:41:06 27° WSW 23:43:29 20° SW
STARLINK-1243 3.9 23:38:13 10° WNW 23:42:09 42° SW 23:46:03 10° SE
Cosmos 372 Rocket 3.9 23:37:29 10° NNW 23:42:39 87° WSW 23:47:48 10° SSE
ATLAS CENTAUR R/B 4.3 23:41:47 10° NW 23:42:58 11° NNW 23:44:07 10° N
Cosmos 1125 Rocket 4.4 23:39:29 10° NNW 23:44:34 49° ENE 23:49:36 10° SE
STARLINK-1236 4.0 23:43:12 10° WNW 23:47:05 39° SW 23:50:57 10° SSE
Cosmos 1825 Rocket 3.9 23:44:53 23° SW 23:47:18 51° WNW 23:51:34 10° N
Cosmos 1709 Rocket 4.4 23:44:10 20° SW 23:48:16 49° WNW 23:54:16 10° N
Cosmos 2208 Rocket 4.0 23:47:08 21° SSW 23:50:45 82° WNW 23:56:08 10° NNE
STARLINK-1311 4.2 23:50:23 21° SSE 23:51:08 24° SE 23:53:36 10° E
STARLINK-33 3.9 23:50:57 25° S 23:52:04 34° SE 23:55:02 10° ENE
STARLINK 1040 2.2 23:55:45 32° WSW 23:56:46 82° SSE 23:59:21 10° ENE
